Simultaneous Nadir Overpasses (SNOs) Predictions

Prediction of SNOs between TERRA and METOP-C Satellite Orbit:

Table of predicted SNOs for the next 14.0 days since TLE Epoch: 2/10/2024
Index Date (TERRA) Time (TERRA) Lat,Lon (TERRA) SZA (TERRA ) Date (METOP-C) Time (METOP-C) Lat,Lon (METOP-C) SZA (METOP-C ) Distance(km) Time Diff (sec)
1 02/12/2024 09:01:04 79.76, 64.55 93.90 02/12/2024 09:00:50 79.75, 64.46 93.89 1.92 14
2 02/12/2024 09:50:23 -79.89,-126.80 85.94 02/12/2024 09:51:27 -79.88,-126.93 85.93 2.70 64
3 02/14/2024 23:32:22 79.62,-154.23 92.85 02/14/2024 23:31:13 79.62,-154.18 92.85 0.97 69
4 02/15/2024 00:21:40 -79.80, 14.70 86.93 02/15/2024 00:21:49 -79.80, 14.73 86.92 0.54 9
5 02/17/2024 14:52:58 -79.65, 155.76 88.03 02/17/2024 14:52:13 -79.65, 155.77 88.04 0.39 45
6 02/17/2024 15:42:14 79.81, -35.45 92.17 02/17/2024 15:42:48 79.80, -35.52 92.17 1.44 34
7 02/20/2024 06:13:30 79.70, 105.91 91.11 02/20/2024 06:13:10 79.70, 105.96 91.11 1.02 20
8 02/20/2024 07:02:48 -79.88, -85.10 88.67 02/20/2024 07:03:46 -79.88, -85.02 88.65 1.65 58
9 02/22/2024 20:44:46 79.52,-113.15 89.94 02/22/2024 20:43:33 79.52,-113.15 89.93 0.18 73



Historial Predications of SNOs between TERRA and METOP-C
